Location: Poughquag
(41.6090°N, 73.6820°W)
Time: 03:38:38
(UTC-04:00)

S-56A Canister/Altair - Pass Details

Date: 04 June 2020
Orbit: 633 x 2499 km, 38.9° (Epoch: 06 July)

Event Time Altitude Azimuth Distance (km) Brightness Sun altitude
Rises 03:01:27 0° 209° (SSW) 2,940 - -19.3°
Reaches altitude 10° 03:04:05 10° 192° (SSW) 2,116 - -19.1°
Exits shadow 03:06:38 20° 159° (SSE) 1,677 8.9 -18.8°
Maximum altitude 03:07:39 21° 143° (SE) 1,676 9.1 -18.7°
Drops below altitude 10° 03:11:57 10° 96° (E) 2,602 10.6 -18.3°
Sets 03:15:36 0° 81° (E) 3,855 11.8 -17.9°
